User: anonymous   Login
Location: Ocean City
(38.3360°N, 75.0850°W)
Time: 18:59:26
(UTC-05:00)
Language:

Explorer 11/Cluster Stage 4 - Orbit

View from above orbital plane
View from above orbital plane
View from above satellite
View from above satellite

Ground track
Ground track

The orbit data is extracted from the following two-line orbital elements,

1 00107U 61013A   21024.34036534  .00000720  00000-0  76489-4 0  9993
2 00107  28.7920  13.8372 0545917 319.6524  36.4743 14.09099507997403
Epoch (UTC): 24 January 2021 08:10:07
Eccentricity: 0.0545917
inclination: 28.7920°
perigee height: 467 km
apogee height: 1258 km
right ascension of ascending node: 13.8372°
argument of perigee: 319.6524°
revolutions per day: 14.09099507
mean anomaly at epoch: 36.4743°
orbit number at epoch: 99740

The dashed part of the orbit path shows where the satellite is in the earth's shadow,  

DLR